Flag for Canada Weather past 2 weeks in Saint-Jérôme, Quebec, Canada

Now
59 °F

Clear.


Feels Like: 60 °F
Forecast: 56 / 73 °F
Wind: 3 mph from Southwest

Location: Montreal / Mirabel

Current Time: Aug 29, 2015 at 12:16:41 AM

Latest Report: Aug 28, 2015 at 11:00 PM


Visibility: 25 mi

Pressure: 30.15 "Hg

Humidity: 88%

Dew point: 55 °F

Location of Saint-JérômeLocation

Historic Weather in Saint-Jérôme — Graph

°F

Saint-Jérôme temperature yesterday

Maximum temperature yesterday: 70 °F (at 1:00 PM)
Minimum temperature yesterday: 54 °F (at 5:00 AM)
Average temperature yesterday: 62 °F

Past Weeks' High & Low Weather Summary

 TemperatureHumidityPressure
High88 °F (Aug 19, 4:00 PM)100% (Aug 14, 6:00 AM)30.18 "Hg (Aug 14, 6:00 AM)
Low54 °F (Aug 28, 5:00 AM)48% (Aug 23, 5:00 PM)29.78 "Hg (Aug 24, 4:00 PM)
Average70 °F82%30.00 "Hg
* Reported Aug 13 10:00 PM — Aug 28 10:00 PM, Saint-Jérôme, Weather by CustomWeather, © 2015

Note: Actual official high and low records may vary slightly from our data, if they occured in-between our weather recording intervals... More about our weather records

Advertising

Saint-Jérôme weather history for previous 24 hours

 ConditionsComfort  
Time TempWeatherWind HumidityBarometerVisibility
10:00 PM
Fri, Aug 28
59 °FClear.3 mph88%30.16 "Hg25 mi
9:00 PM61 °FClear.3 mph83%30.16 "Hg25 mi
8:00 PM61 °FSunny.No wind83%30.13 "Hg25 mi
7:00 PM66 °FPassing clouds.No wind68%30.13 "Hg45 mi
6:00 PM68 °FPassing clouds.6 mph69%30.13 "Hg45 mi
5:00 PM70 °FScattered clouds.6 mph60%30.13 "Hg45 mi
4:00 PM70 °FScattered clouds.10 mph60%30.14 "Hg45 mi
3:00 PM70 °FPartly sunny.8 mph60%30.14 "Hg45 mi
2:00 PM70 °FScattered clouds.10 mph60%30.15 "Hg45 mi
1:00 PM70 °FPassing clouds.8 mph60%30.16 "Hg45 mi
12:00 PM68 °FScattered clouds.10 mph64%30.17 "Hg45 mi
11:00 AM66 °FPassing clouds.7 mph68%30.18 "Hg45 mi
10:00 AM63 °FPassing clouds.7 mph77%30.18 "Hg35 mi
9:00 AM59 °FPassing clouds.5 mph88%30.17 "Hg30 mi
8:00 AM55 °FFog.6 mph94%30.16 "Hg25 mi
7:00 AM54 °FFog.5 mph94%30.16 "Hg25 mi
6:00 AM54 °FFog.5 mph94%30.14 "Hg25 mi
5:00 AM54 °FClear.5 mph94%30.14 "Hg25 mi
4:00 AM55 °FClear.3 mph88%30.14 "Hg25 mi
3:00 AM55 °FClear.5 mph94%30.12 "Hg25 mi
2:00 AM55 °FClear.3 mph88%30.12 "Hg25 mi
1:00 AM55 °FClear.5 mph88%30.13 "Hg25 mi
12:00 AM57 °FClear.5 mph88%30.11 "Hg25 mi
Weather by CustomWeather, © 2015

See weather overviewHow to use our weather pages